#timestamp,LO_Frequency,Hit,StdDev 
1557914415.2,286046997.4,N
1557914435.0,286046999.2,N
1557914435.9,286046999.2,N
1557914455.8,286046997.7,N
1557914475.6,286046995.4,N
1557914495.5,286046996.8,N
1557914515.3,286046997.9,N
1557914535.1,286046997.7,N
1557914555.7,286046997.2,N
1557914575.5,286046997.2,N
1557914595.3,286046998.0,N
1557914615.2,286046997.2,N
1557914635.9,286046997.2,N
1557914655.7,286046999.5,N
1557914675.6,286047000.5,N
1557914695.4,286047002.5,N
1557914715.3,286047001.5,N
1557914735.1,286047000.0,N
1557914736.0,286047000.0,N
1557914755.8,286047002.4,N
1557914775.7,286046999.7,N
1557914795.5,286047002.4,N
1557914815.4,286047002.7,N
1557914835.2,286047002.8,N
1557914855.0,286046998.2,N
1557914855.9,286046998.2,N
1557914875.8,286046997.1,N
1557914895.6,286046999.0,N
1557914915.5,286046999.6,N
1557914935.3,286047001.0,N
1557914955.1,286046998.2,N
1557914975.9,286047002.8,N
1557914995.7,286047002.3,N
1557915015.5,286047002.8,N
1557915035.4,286047000.9,N
1557915055.2,286047000.3,N
1557915075.1,286047002.7,N
1557915076.0,286047002.7,N
1557915095.8,286047002.1,N
1557915115.6,286047002.7,N
1557915135.5,286047001.1,N
1557915155.3,286047002.4,N
1557915175.1,286047003.3,N
1557915195.9,286047003.8,N
1557915215.7,286047002.0,N
1557915235.6,286047000.4,N
1557915255.4,286046998.5,N
1557915275.2,286046999.8,N
1557915295.1,286047000.1,N
1557915296.0,286047000.1,N
1557915315.8,286047002.5,N
1557915335.7,286047002.5,N
1557915355.5,286047003.3,N
1557915375.3,286047001.6,N
1557915395.2,286047001.1,N
1557915415.9,286047000.9,N
1557915435.7,286047000.0,N
1557915455.6,286046998.4,N
1557915475.4,286046999.0,N
1557915495.2,286046999.1,N
1557915515.1,286047000.8,N
1557915516.0,286047000.8,N
1557915535.8,286047000.5,N
1557915555.7,286047000.3,N
1557915575.5,286047000.0,N
1557915595.3,286046999.9,N
1557915615.2,286047002.5,N
1557915635.0,286047002.0,N
1557915635.9,286047002.0,N
1557915655.8,286047001.9,N
1557915675.6,286047003.7,N
1557915695.4,286046999.7,N
1557915715.3,286047004.0,N
1557915735.1,286047003.6,N
1557915736.0,286047003.6,N
1557915755.8,286047005.5,Y
1557915775.7,286047004.0,P
1557915795.5,286047003.9,N
1557915815.4,286047003.4,N
1557915835.2,286047003.2,N
1557915855.0,286047002.0,N
1557915855.9,286047002.0,N
1557915875.8,286047000.1,N
1557915895.6,286047000.2,N
1557915915.4,286047000.7,N
1557915935.3,286047000.4,N
1557915955.1,286046999.8,N
1557915975.9,286046999.9,N
1557915995.7,286047001.9,N
1557916015.5,286047001.9,N
1557916035.4,286047000.0,N
1557916055.2,286047000.1,N
1557916075.0,286047000.2,N
1557916075.9,286047000.2,N
1557916095.8,286047000.9,N
1557916115.6,286047000.0,N
1557916135.5,286047000.8,N
1557916155.3,286046998.5,N
1557916175.1,286047001.0,N
1557916195.9,286047002.8,N
1557916215.7,286047003.8,N
1557916235.6,286047003.1,N
1557916255.4,286047004.1,N
1557916275.2,286047004.2,N
1557916295.1,286047004.3,N
1557916296.0,286047004.3,N
1557916315.8,286047003.8,N
1557916335.7,286047004.4,N
1557916355.5,286047001.2,N
1557916375.3,286046998.9,N
1557916395.2,286047001.1,N
1557916415.0,286047000.2,N
1557916415.9,286047000.2,N
1557916435.7,286047000.6,N
1557916455.6,286047000.1,N
1557916475.4,286047001.0,N
1557916495.3,286047002.7,N
1557916515.1,286047000.8,N
1557916516.0,286047000.8,N
1557916535.8,286047000.6,N
1557916555.7,286047000.1,N
1557916575.5,286047000.1,N
1557916595.3,286047000.1,N
1557916615.2,286047000.3,N
1557916635.0,286047000.1,N
1557916635.9,286047000.1,N
1557916655.8,286047000.0,N
1557916675.6,286047001.6,N
1557916695.4,286047000.7,N
1557916715.3,286047001.2,N
1557916735.1,286047002.2,N
1557916755.8,286047004.3,N
1557916775.7,286046999.8,N
1557916795.5,286047002.1,N
1557916815.4,286047003.4,N
1557916835.2,286047003.3,N
1557916855.0,286047004.0,N
1557916855.9,286047004.0,N
1557916875.8,286047003.9,N
1557916895.6,286047003.1,N
1557916915.5,286047003.3,N
1557916935.3,286047003.1,N
1557916955.1,286047003.7,N
1557916975.9,286047005.8,Y
1557916995.7,286047003.8,P
1557917015.5,286047003.6,P
1557917035.4,286047005.2,P
1557917055.2,286047011.9,Y
1557917075.1,286047001.8,P
1557917076.0,286047001.8,N
1557917095.8,286047001.5,N
1557917115.6,286047004.2,Y
1557917135.5,286046998.1,P
1557917155.3,286046996.9,N
1557917175.2,286046998.0,N
1557917195.9,286046994.9,N
1557917215.7,286046994.9,N
1557917235.6,286046997.7,N
1557917255.4,286046993.5,N
1557917275.2,286046991.8,Y
1557917295.1,286046995.0,P
1557917296.0,286046995.0,P
1557917315.8,286046995.2,P
1557917335.7,286046995.6,Y
1557917355.5,286047000.1,P
1557917375.3,286047003.9,N
1557917395.2,286047005.6,N
1557917415.0,286047007.4,N
1557917415.9,286047007.4,N
1557917435.8,286047006.7,N
1557917455.6,286047003.4,N
1557917475.4,286047003.8,N
1557917495.3,286047000.2,N
1557917515.1,286047001.7,N
1557917535.8,286047003.9,N
1557917555.7,286047003.7,N
1557917575.5,286047002.9,N
1557917595.3,286047005.2,N
1557917615.2,286047003.6,N
1557917635.0,286047003.3,N
1557917635.9,286047003.3,N
1557917655.8,286047001.5,N
1557917675.6,286046999.8,N
1557917695.4,286047000.7,N
1557917715.3,286047000.3,N
1557917735.1,286046999.7,N
1557917755.8,286047004.1,N
1557917775.7,286047004.8,N
1557917795.5,286047006.0,N
1557917815.4,286047004.8,N
1557917835.2,286047006.8,N
1557917855.0,286047005.6,N
1557917855.9,286047005.6,N
1557917875.8,286047004.1,N
1557917895.6,286047001.8,N
1557917915.4,286047004.2,N
1557917935.3,286047003.7,N
1557917955.1,286047003.7,N
1557917975.9,286047002.4,N
1557917995.7,286047002.2,N
